Location: Del Oro Observatory
(38.3044°N, 104.8119°W)
Time: 09:55:10
(UTC-06:00)

Iridium 35 - Visible Passes

Search period start: 28 June 2017 00:00
Search period end: 08 July 2017 00:00
Orbit: 776 x 779 km, 86.4° (Epoch: 27 June)

Date Brightness Start Highest point End Pass type
(mag) Time Alt. Az. Time Alt. Az. Time Alt. Az.
28 Jun 6.2 02:57:25 20° SE 03:00:23 36° E 03:05:08 10° NNE visible
28 Jun 6.3 04:37:55 13° SW 04:41:10 23° WNW 04:45:16 10° NNW visible
29 Jun 7.1 02:24:14 13° ESE 02:27:07 20° E 02:30:48 10° NE visible
29 Jun 5.5 04:04:43 24° SW 04:07:27 42° W 04:12:24 10° NNW visible
30 Jun 7.7 01:53:30 10° E 01:53:57 10° ENE 01:54:24 10° ENE visible
30 Jun 4.9 03:31:32 34° S 03:33:52 81° W 03:39:06 10° N visible
01 Jul 5.6 02:58:19 33° SSE 03:00:24 54° E 03:05:29 10° NNE visible
01 Jul 6.8 04:38:48 11° WSW 04:41:27 16° WNW 04:44:36 10° NW visible
02 Jul 6.6 02:25:06 22° ESE 02:27:03 29° E 02:31:28 10° NNE visible
02 Jul 6.0 04:05:35 22° WSW 04:07:39 29° W 04:12:11 10° NNW visible
03 Jul 7.3 01:51:52 13° ESE 01:53:49 15° E 01:56:48 10° NE visible
03 Jul 5.2 03:32:21 39° SW 03:33:59 55° W 03:39:07 10° N visible
04 Jul 5.0 02:59:07 51° SSE 03:00:27 80° E 03:05:41 10° N visible
04 Jul 7.1 04:40:47 10° W 04:41:48 10° WNW 04:42:48 10° WNW visible
05 Jul 5.9 02:25:51 36° ESE 02:27:02 42° E 02:31:55 10° NNE visible
05 Jul 6.5 04:06:20 18° WSW 04:07:55 20° WNW 04:11:44 10° NNW visible
06 Jul 6.8 01:52:35 21° E 01:53:44 23° E 01:57:43 10° NNE visible
06 Jul 5.7 03:33:04 33° WSW 03:34:10 37° W 03:39:00 10° NNW visible
07 Jul 7.4 01:19:19 11° E 01:20:34 12° ENE 01:22:23 10° ENE visible
07 Jul 4.9 02:59:48 61° SW 03:00:33 71° W 03:05:47 10° N visible
